MQT25T EDDL-EDDH

Flight info

Callsign MQT25T
Flight time 0h 45m
Altitude 33000
Route MEVEL4T MEVEL Y850 BASUM/N0444F320 Y850 PIXUR/N0444F310 Y850 MUBZI M105 RIBSO RIBSO3D
Aircraft A320/M-SDE3FGHIRWY/LB1

Departure

Time 2026-05-01 08:04
Airport Düsseldorf Airport (EDDL)

Arrival

Time 2026-05-01 08:50
Airport Hamburg Helmut Schmidt Airport (EDDH)
Time Latitude Longitude Altitude Speed Heading
2026-05-01 07:35 51.28055 6.76288 130 ft 0 kts 185°
2026-05-01 07:52 51.28066 6.76290 130 ft 4 kts 185°
2026-05-01 07:52 51.28093 6.76294 125 ft 4 kts 185°
2026-05-01 07:53 51.28136 6.76310 129 ft 4 kts 249°
2026-05-01 07:53 51.28134 6.76345 129 ft 4 kts 296°
2026-05-01 07:53 51.28127 6.76369 129 ft 0 kts 297°
2026-05-01 07:57 51.28127 6.76368 129 ft 1 kts 301°
2026-05-01 07:57 51.28187 6.76268 129 ft 9 kts 325°
2026-05-01 07:58 51.28327 6.76440 124 ft 19 kts 52°
2026-05-01 07:58 51.28499 6.76795 128 ft 18 kts 53°
2026-05-01 07:59 51.28648 6.77112 127 ft 18 kts 53°
2026-05-01 07:59 51.28793 6.77441 131 ft 23 kts 56°
2026-05-01 08:00 51.29111 6.78081 134 ft 18 kts 52°
2026-05-01 08:01 51.29298 6.78469 149 ft 18 kts 50°
2026-05-01 08:01 51.29329 6.78524 151 ft 0 kts 42°
2026-05-01 08:01 51.29372 6.78568 153 ft 9 kts 22°
2026-05-01 08:02 51.29465 6.78570 154 ft 9 kts 345°
2026-05-01 08:02 51.29514 6.78529 153 ft 8 kts 320°
2026-05-01 08:03 51.29540 6.78506 153 ft 1 kts 118°
2026-05-01 08:03 51.29524 6.78484 152 ft 6 kts 232°
2026-05-01 08:03 51.29189 6.77794 134 ft 94 kts 233°
2026-05-01 08:04 51.28267 6.75833 355 ft 157 kts 231°
2026-05-01 08:04 51.26900 6.72813 1506 ft 191 kts 245°
2026-05-01 08:05 51.28018 6.68670 3502 ft 205 kts 340°
2026-05-01 08:05 51.28941 6.68313 4090 ft 204 kts 357°
2026-05-01 08:05 51.30369 6.68537 4855 ft 212 kts 11°
2026-05-01 08:06 51.33538 6.69065 6264 ft 247 kts
2026-05-01 08:06 51.37225 6.69454 7984 ft 281 kts
2026-05-01 08:07 51.41233 6.69700 9993 ft 294 kts
2026-05-01 08:07 51.45509 6.69660 11457 ft 324 kts
2026-05-01 08:08 51.47829 6.69628 12042 ft 343 kts
2026-05-01 08:08 51.52851 6.69603 13149 ft 376 kts
2026-05-01 08:09 51.58168 6.70083 14757 ft 387 kts 13°
2026-05-01 08:09 51.60727 6.71419 15549 ft 389 kts 25°
2026-05-01 08:09 51.63076 6.73588 16316 ft 391 kts 37°
2026-05-01 08:10 51.66788 6.79946 17746 ft 398 kts 54°
2026-05-01 08:10 51.70098 6.87179 19102 ft 405 kts 54°
2026-05-01 08:11 51.73462 6.94570 20365 ft 412 kts 54°
2026-05-01 08:11 51.76898 7.02083 21592 ft 420 kts 54°
2026-05-01 08:12 51.80391 7.09731 22745 ft 427 kts 54°
2026-05-01 08:12 51.82156 7.13613 23304 ft 430 kts 53°
2026-05-01 08:12 51.85785 7.21408 24336 ft 436 kts 48°
2026-05-01 08:13 51.87873 7.25000 24797 ft 440 kts 46°
2026-05-01 08:13 51.89993 7.28587 25244 ft 442 kts 46°
2026-05-01 08:13 51.94277 7.35811 26069 ft 447 kts 46°
2026-05-01 08:14 51.96432 7.39447 26449 ft 449 kts 46°
2026-05-01 08:14 51.98601 7.43118 26800 ft 451 kts 46°
2026-05-01 08:14 52.00771 7.46804 27139 ft 453 kts 46°
2026-05-01 08:14 52.02947 7.50512 27459 ft 454 kts 46°
2026-05-01 08:15 52.05124 7.54224 27851 ft 453 kts 46°
2026-05-01 08:15 52.09454 7.61633 28589 ft 451 kts 46°
2026-05-01 08:15 52.11616 7.65321 28966 ft 449 kts 45°
2026-05-01 08:16 52.13789 7.68965 29315 ft 448 kts 45°
2026-05-01 08:16 52.15971 7.72586 29698 ft 447 kts 45°
2026-05-01 08:16 52.18149 7.76197 30099 ft 446 kts 45°
2026-05-01 08:16 52.20284 7.79764 30519 ft 445 kts 45°
2026-05-01 08:17 52.22432 7.83394 30967 ft 444 kts 45°
2026-05-01 08:17 52.24565 7.87042 31403 ft 444 kts 46°
2026-05-01 08:17 52.26687 7.90704 31854 ft 443 kts 46°
2026-05-01 08:17 52.28806 7.94363 32294 ft 443 kts 46°
2026-05-01 08:18 52.30925 7.98017 32616 ft 444 kts 46°
2026-05-01 08:18 52.35169 8.05322 33120 ft 442 kts 45°
2026-05-01 08:19 52.39406 8.12624 33424 ft 442 kts 46°
2026-05-01 08:19 52.43626 8.19915 33450 ft 440 kts 46°
2026-05-01 08:20 52.47836 8.27214 33458 ft 440 kts 46°
2026-05-01 08:20 52.52036 8.34525 33458 ft 440 kts 46°
2026-05-01 08:21 52.56198 8.41812 33467 ft 440 kts 46°
2026-05-01 08:21 52.60387 8.49169 33467 ft 441 kts 46°
2026-05-01 08:22 52.64575 8.56525 33468 ft 440 kts 46°
2026-05-01 08:22 52.68757 8.63888 33463 ft 440 kts 46°
2026-05-01 08:23 52.72970 8.71211 33463 ft 439 kts 41°
2026-05-01 08:23 52.78085 8.76611 33454 ft 438 kts 22°
2026-05-01 08:24 52.84014 8.78796 33444 ft 439 kts
2026-05-01 08:24 52.90118 8.78785 33437 ft 439 kts 360°
2026-05-01 08:24 52.93138 8.78751 33235 ft 440 kts 360°
2026-05-01 08:25 52.96231 8.78790 32560 ft 437 kts
2026-05-01 08:25 52.99210 8.79351 31815 ft 434 kts
2026-05-01 08:25 53.02206 8.80031 31063 ft 436 kts
2026-05-01 08:25 53.05222 8.80722 30309 ft 438 kts
2026-05-01 08:26 53.08248 8.81415 29556 ft 440 kts
2026-05-01 08:26 53.11288 8.82107 28803 ft 442 kts
2026-05-01 08:26 53.14332 8.82800 28049 ft 440 kts
2026-05-01 08:26 53.17362 8.83488 27294 ft 436 kts
2026-05-01 08:27 53.20351 8.84167 26547 ft 431 kts
2026-05-01 08:27 53.23311 8.84841 25790 ft 427 kts
2026-05-01 08:27 53.26244 8.85511 25037 ft 423 kts
2026-05-01 08:27 53.29157 8.86178 24283 ft 420 kts
2026-05-01 08:28 53.32030 8.86839 23532 ft 415 kts
2026-05-01 08:28 53.34841 8.87804 22782 ft 410 kts 17°
2026-05-01 08:28 53.37508 8.89437 22027 ft 406 kts 23°
2026-05-01 08:28 53.40092 8.91270 21274 ft 402 kts 24°
2026-05-01 08:29 53.42658 8.93088 20519 ft 397 kts 24°
2026-05-01 08:29 53.45189 8.94885 19768 ft 393 kts 24°
2026-05-01 08:29 53.47701 8.96674 19012 ft 390 kts 24°
2026-05-01 08:29 53.50152 8.98424 18266 ft 386 kts 24°
2026-05-01 08:30 53.52619 9.00201 17519 ft 383 kts 26°
2026-05-01 08:30 53.54928 9.02370 16769 ft 379 kts 35°
2026-05-01 08:30 53.57070 9.04911 16014 ft 376 kts 36°
2026-05-01 08:30 53.59193 9.07449 15261 ft 373 kts 36°
2026-05-01 08:31 53.61300 9.09968 14504 ft 370 kts 36°
2026-05-01 08:31 53.63391 9.12468 13755 ft 367 kts 36°
2026-05-01 08:31 53.65463 9.14947 13149 ft 361 kts 36°
2026-05-01 08:31 53.67482 9.17365 12645 ft 352 kts 36°
2026-05-01 08:32 53.69454 9.19736 12144 ft 342 kts 36°
2026-05-01 08:32 53.71352 9.22022 11643 ft 329 kts 36°
2026-05-01 08:32 53.73179 9.24225 11144 ft 318 kts 36°
2026-05-01 08:32 53.74951 9.26364 10823 ft 307 kts 36°
2026-05-01 08:33 53.76628 9.28512 10579 ft 299 kts 44°
2026-05-01 08:33 53.77906 9.31215 10330 ft 292 kts 61°
2026-05-01 08:33 53.78634 9.34376 10078 ft 286 kts 78°
2026-05-01 08:33 53.78768 9.37693 9826 ft 281 kts 95°
2026-05-01 08:34 53.78352 9.40848 9575 ft 278 kts 111°
2026-05-01 08:34 53.77432 9.43686 9330 ft 275 kts 127°
2026-05-01 08:34 53.76028 9.45824 9081 ft 273 kts 150°
2026-05-01 08:34 53.74235 9.46761 8833 ft 271 kts 176°
2026-05-01 08:35 53.72397 9.46225 8597 ft 270 kts 203°
2026-05-01 08:35 53.70787 9.44628 8348 ft 268 kts 208°
2026-05-01 08:35 53.69038 9.43736 8095 ft 262 kts 183°
2026-05-01 08:35 53.67264 9.44033 7922 ft 252 kts 165°
2026-05-01 08:36 53.65575 9.44778 7748 ft 249 kts 165°
2026-05-01 08:36 53.63905 9.45472 7578 ft 246 kts 166°
2026-05-01 08:36 53.62245 9.46139 7401 ft 244 kts 166°
2026-05-01 08:36 53.60595 9.46793 7232 ft 243 kts 166°
2026-05-01 08:37 53.58954 9.47437 7062 ft 242 kts 166°
2026-05-01 08:37 53.57316 9.48080 6890 ft 242 kts 166°
2026-05-01 08:37 53.55682 9.48721 6707 ft 241 kts 166°
2026-05-01 08:37 53.54069 9.49358 6506 ft 242 kts 166°
2026-05-01 08:38 53.52426 9.49981 6264 ft 243 kts 171°
2026-05-01 08:38 53.50743 9.49924 6021 ft 244 kts 192°
2026-05-01 08:38 53.49183 9.48815 5825 ft 245 kts 214°
2026-05-01 08:38 53.47965 9.46847 5683 ft 242 kts 229°
2026-05-01 08:39 53.46884 9.44698 5552 ft 240 kts 229°
2026-05-01 08:39 53.45813 9.42559 5386 ft 238 kts 229°
2026-05-01 08:39 53.44746 9.40441 5210 ft 238 kts 229°
2026-05-01 08:39 53.43678 9.38323 5044 ft 237 kts 229°
2026-05-01 08:40 53.40870 9.36031 4739 ft 231 kts 174°
2026-05-01 08:40 53.39371 9.36877 4504 ft 229 kts 145°
2026-05-01 08:40 53.38129 9.38543 4211 ft 229 kts 140°
2026-05-01 08:41 53.36952 9.40331 4049 ft 228 kts 129°
2026-05-01 08:41 53.36303 9.42717 3999 ft 228 kts 98°
2026-05-01 08:41 53.36497 9.45330 3994 ft 229 kts 66°
2026-05-01 08:41 53.37437 9.47485 3999 ft 231 kts 48°
2026-05-01 08:42 53.38502 9.49512 4003 ft 232 kts 50°
2026-05-01 08:42 53.39541 9.51582 4014 ft 231 kts 51°
2026-05-01 08:42 53.40571 9.53658 4005 ft 231 kts 51°
2026-05-01 08:42 53.41600 9.55734 4017 ft 232 kts 51°
2026-05-01 08:43 53.42630 9.57805 4011 ft 232 kts 51°
2026-05-01 08:43 53.43652 9.59857 4006 ft 232 kts 51°
2026-05-01 08:43 53.44679 9.61920 3931 ft 228 kts 50°
2026-05-01 08:43 53.45679 9.63929 3834 ft 221 kts 51°
2026-05-01 08:44 53.46651 9.65885 3745 ft 214 kts 51°
2026-05-01 08:44 53.47588 9.67762 3656 ft 206 kts 50°
2026-05-01 08:44 53.48474 9.69535 3552 ft 192 kts 50°
2026-05-01 08:44 53.49316 9.71215 3416 ft 185 kts 50°
2026-05-01 08:45 53.50133 9.72851 3292 ft 180 kts 50°
2026-05-01 08:45 53.50929 9.74447 3214 ft 177 kts 50°
2026-05-01 08:45 53.51726 9.76043 3063 ft 179 kts 50°
2026-05-01 08:45 53.52529 9.77654 2850 ft 181 kts 50°
2026-05-01 08:46 53.53338 9.79278 2629 ft 183 kts 50°
2026-05-01 08:46 53.54160 9.80929 2385 ft 185 kts 50°
2026-05-01 08:46 53.54985 9.82584 2145 ft 182 kts 50°
2026-05-01 08:46 53.55780 9.84193 1890 ft 176 kts 50°
2026-05-01 08:47 53.56543 9.85729 1675 ft 163 kts 50°
2026-05-01 08:47 53.57242 9.87125 1460 ft 151 kts 49°
2026-05-01 08:47 53.57898 9.88440 1254 ft 143 kts 50°
2026-05-01 08:47 53.58526 9.89707 1049 ft 139 kts 51°
2026-05-01 08:48 53.59146 9.90961 934 ft 140 kts 51°
2026-05-01 08:48 53.59769 9.92216 780 ft 139 kts 51°
2026-05-01 08:48 53.60392 9.93467 554 ft 141 kts 50°
2026-05-01 08:48 53.61019 9.94724 362 ft 139 kts 50°
2026-05-01 08:49 53.61628 9.95985 204 ft 138 kts 52°
2026-05-01 08:49 53.62234 9.97203 58 ft 137 kts 50°
2026-05-01 08:49 53.62819 9.98386 45 ft 119 kts 50°
2026-05-01 08:49 53.63265 9.99288 46 ft 69 kts 52°
2026-05-01 08:50 53.63499 9.99769 50 ft 33 kts 50°
2026-05-01 08:50 53.63546 9.99879 52 ft 0 kts 71°
2026-05-01 08:50 53.63553 9.99978 52 ft 12 kts 100°
2026-05-01 08:50 53.63515 10.00066 51 ft 3 kts 143°
2026-05-01 08:51 53.63491 10.00098 48 ft 7 kts 139°
2026-05-01 08:51 53.63457 10.00160 47 ft 8 kts 128°
2026-05-01 08:51 53.63450 10.00176 50 ft 0 kts 121°
2026-05-01 08:51 53.63448 10.00184 50 ft 2 kts 115°
2026-05-01 08:52 53.63444 10.00202 46 ft 1 kts 102°
2026-05-01 08:52 53.63443 10.00227 50 ft 1 kts 89°
2026-05-01 08:52 53.63446 10.00265 48 ft 5 kts 78°
2026-05-01 08:52 53.63447 10.00286 50 ft 3 kts 81°
2026-05-01 08:53 53.63449 10.00305 50 ft 1 kts 83°
2026-05-01 08:53 53.63449 10.00313 48 ft 0 kts 83°